Location: Darr Branch
(32.1532°N, 97.3853°W)
Time: 19:46:59
(UTC+00:00)

IRS-1D - Visible Passes

Search period start: 06 February 2026 00:00
Search period end: 16 February 2026 00:00
Orbit: 737 x 810 km, 98.8° (Epoch: 6 February)

Date Brightness Start Highest point End Pass type
(mag) Time Alt. Az. Time Alt. Az. Time Alt. Az.
6 Feb 4.5 11:07:48 10° NNE 11:12:49 47° E 11:17:42 10° S visible
6 Feb 4.9 12:48:10 10° NNW 12:51:28 17° WNW 12:54:43 10° WSW visible
7 Feb 5.9 10:34:31 10° NE 10:38:19 20° E 10:42:03 10° SE visible
7 Feb 4.0 12:12:42 10° N 12:17:28 37° WNW 12:22:07 10° SW visible
8 Feb 3.4 11:38:04 10° NNE 11:43:17 84° WNW 11:48:23 10° SSW visible
9 Feb 4.7 11:04:02 10° NNE 11:08:56 42° E 11:13:43 10° S visible
9 Feb 4.8 12:44:07 10° NNW 12:47:39 19° WNW 12:51:08 10° WSW visible
10 Feb 6.1 10:30:55 10° NE 10:34:24 18° E 10:37:51 10° SE visible
10 Feb 3.9 12:08:48 10° N 12:13:38 41° WNW 12:18:21 10° SW visible
11 Feb 3.5 11:34:14 10° NNE 11:39:26 87° ESE 11:44:29 10° SSW visible
12 Feb 4.9 11:00:17 10° NNE 11:05:03 37° E 11:09:42 10° SSE visible
12 Feb 4.7 12:40:05 10° NNW 12:43:49 21° WNW 12:47:30 10° WSW visible
13 Feb 6.2 10:27:22 10° NE 10:30:30 16° E 10:33:34 10° SE visible
13 Feb 3.8 12:04:53 10° N 12:09:47 45° WNW 12:14:33 10° SW visible
14 Feb 3.6 11:30:23 10° NNE 11:35:33 79° ESE 11:40:34 10° S visible
15 Feb 5.1 10:56:31 10° NE 11:01:08 33° E 11:05:39 10° SSE visible
15 Feb 4.6 12:36:04 10° NNW 12:39:59 22° WNW 12:43:50 10° WSW visible
